User: anonymous   Login
Location: Grandview
(34.8900°N, 117.1058°W)
Time: 12:12:05
(UTC-08:00)
Language:

Tiangong 2 - Orbit

View from above orbital plane
View from above orbital plane
View from above satellite
View from above satellite

Ground track
Ground track

The orbit data is extracted from the following two-line orbital elements,

1 41765U 16057A   17352.39000275  .00004628  00000-0  60550-4 0  9996
2 41765  42.7848 340.1275 0001935  65.2709  83.4879 15.59858989 71731
Epoch (UTC): 18 December 2017 09:21:36
Eccentricity: 0.0001935
inclination: 42.7848°
perigee height: 387 km
apogee height: 389 km
right ascension of ascending node: 340.1275°
argument of perigee: 65.2709°
revolutions per day: 15.59858989
mean anomaly at epoch: 83.4879°
orbit number at epoch: 7173

The dashed part of the orbit path shows where the satellite is in the earth's shadow,  

DLR